Regional Weather Roundup
Issued by NWS Northern Indiana

Home | Current Version | Previous Version | Text Only | Print | Product List | Glossary Off
Versions: 1 2 3 4 5 6 7 8 9 10 11 12 13 14 15 16 17 18 19 20 21 22 23 24 25 26 27 28 29 30 31 32 33 34 35 36 37 38 39 40 41 42 43 44 45 46 47 48 49 50

000
ASUS43 KIWX 031500
RWRIWX

KIWX WEATHER ROUNDUP
NATIONAL WEATHER SERVICE NORTHERN INDIANA
1100 AM EDT FRI JUL 03 2015

NOTE: "FAIR" INDICATES FEW OR NO CLOUDS BELOW 12,000 FEET WITH NO
SIGNIFICANT WEATHER AND/OR OBSTRUCTIONS TO VISIBILITY.

* THESE STATIONS ARE NOT UNDER NWS QUALITY CONTROL. THEY ALSO MAY NOT
  REPORT WEATHER SUCH AS PRECIPITATION OR FOG.

INZ001>027-031600-
NORTHERN INDIANA

CITY           SKY/WX    TMP DP  RH WIND       PRES   REMARKS
SOUTH BEND     PTSUNNY   70  55  59 E5        29.98F
ELKHART*       SUNNY     68  55  64 E7        29.98F
GOSHEN         PTSUNNY   70  55  59 SE9       29.97F
ANGOLA*          N/A     68  59  73 E7        29.98F
FORT WAYNE     PTSUNNY   69  58  67 E10       29.96F
PERU/GRISSOM   PTSUNNY   67  58  72 E10       29.94S

$$
INZ028>050-031600-
CENTRAL INDIANA

CITY           SKY/WX    TMP DP  RH WIND       PRES   REMARKS
LAFAYETTE      PTSUNNY   69  59  70 NE9       29.93F
KOKOMO*        PTSUNNY   66  57  72 E9        29.94F
MUNCIE*        PTSUNNY   67  58  72 E9        29.94F
INDIANAPOLIS   PTSUNNY   67  59  75 N12       29.89F

$$
MIZ043>046-050>051-056>058-064>065-071>073-077>080-031600-
SOUTHWEST LOWER MICHIGAN

CITY           SKY/WX    TMP DP  RH WIND       PRES   REMARKS
BATTLE CREEK   PTSUNNY   69  52  54 SE3       30.00F
BENTON HARBOR  PTSUNNY   69  57  65 E3        29.98F
COLDWATER*     MOSUNNY   68  52  56 E6        29.99S
HILLSDALE*     MOSUNNY   67  52  58 NE7       29.99F
HOLLAND        PTSUNNY   70  55  59 VRB3      30.00F
GRAND RAPIDS   PTSUNNY   68  55  63 CALM      30.00F
KALAMAZOO      MOSUNNY   69  55  60 CALM      29.99F
STURGIS*       MOSUNNY   68  55  64 E7        29.98F
THREE RIVERS*  FAIR      68  57  67 E5        29.99F

$$
OHZ001>008-015>018-024>025-031600-
NORTHWEST OHIO

CITY           SKY/WX    TMP DP  RH WIND       PRES   REMARKS
DEFIANCE       SUNNY     70  56  61 E8        29.97F
FINDLAY        MOSUNNY   70  55  59 NE8       29.95F
TOLEDO EXPRESS MOSUNNY   69  56  62 NE10      29.97F
TOLEDO METCALF MOSUNNY   70  56  61 NE9       29.98F
LIMA           PTSUNNY   68  56  65 E6        29.96S

$$
AND FOR LAKE MICHIGAN COASTAL AND OPEN LAKE BUOY OBSERVATIONS

STATION/POSITION TEMP    WIND        PRES    VSBY  WAVE
                 AIR SEA DIR/SP/G                  HT/PER
                 (F)     (DEG/KT/KT) (MB)    (MI)  (FT/S)
CALUMET HARBOR    64      60/  2/  2   N/A
MICHIGAN CITY     66     100/  7/ 10   N/A
BURNS HARBOR      67     120/  7/ 14 1015.6S
SAINT JOSEPH      66     170/  1/  4   N/A
4 MI NW BRIDGMAN  63 62                N/A           1/ 4
MICHIGAN CITY     63 63   80/  4/  6   N/A           1/ 4

$$
&&



USA.gov is the U.S. government's official web portal to all federal, state and local government web resources and services.